This is the latest recevied weather packets stored in our database for station/object N8QF-1. If no packets are shown the sender has not sent any weather packets the latest 1 day(s).
| Time | Temp. | Humidity | Pressure | Rain* | Wind** | Luminosity | Snow |
|---|---|---|---|---|---|---|---|
| 1777994132 | 18.89° C | 67% | 1009 hPa | 0 mm | 4.92 m/s, 243° | - | - |
| 1777993832 | 18.89° C | 67% | 1009 hPa | 0 mm | 3.58 m/s, 181° | - | - |
| 1777992930 | 18.33° C | 70% | 1008.9 hPa | 0.25 mm | 4.92 m/s, 184° | - | - |
| 1777992630 | 17.78° C | 71% | 1008.9 hPa | 0.25 mm | 3.13 m/s, 180° | - | - |
| 1777992330 | 17.78° C | 73% | 1008.9 hPa | 0.25 mm | 4.47 m/s, 207° | - | - |
| 1777992029 | 17.78° C | 73% | 1008.7 hPa | 0.25 mm | 2.24 m/s, 200° | - | - |
| 1777991728 | 17.78° C | 76% | 1008.7 hPa | 0.25 mm | 2.68 m/s, 242° | - | - |
| 1777991428 | 17.22° C | 75% | 1008.7 hPa | 0.25 mm | 3.58 m/s, 188° | - | - |
| 1777991127 | 17.22° C | 77% | 1008.7 hPa | 0.25 mm | 3.13 m/s, 197° | - | - |
| 1777990827 | 17.22° C | 79% | 1008.7 hPa | 0.25 mm | 2.68 m/s, 181° | - | - |
| 1777990526 | 17.22° C | 81% | 1008.6 hPa | 0.25 mm | 1.34 m/s, 177° | - | - |
| 1777990226 | 16.67° C | 80% | 1008.5 hPa | 0.25 mm | 3.58 m/s, 212° | - | - |
| 1777989925 | 16.67° C | 82% | 1008.7 hPa | 0.25 mm | 3.58 m/s, 183° | - | - |
| 1777989625 | 16.11° C | 82% | 1008.5 hPa | 0.25 mm | 3.58 m/s, 180° | - | - |
| 1777989324 | 16.11° C | 82% | 1008.6 hPa | 0 mm | 3.58 m/s, 167° | - | - |
| 1777989024 | 16.11° C | 82% | 1008.6 hPa | 0 mm | 2.68 m/s, 186° | - | - |
| 1777988422 | 16.11° C | 83% | 1008.2 hPa | 0 mm | 3.13 m/s, 172° | - | - |
| 1777987832 | 15.56° C | 86% | 1008 hPa | 0 mm | 1.79 m/s, 167° | - | - |
| 1777987219 | 15.56° C | 87% | 1007.8 hPa | 0 mm | 3.13 m/s, 194° | - | - |
| 1777986919 | 15.56° C | 88% | 1007.8 hPa | 0 mm | 3.58 m/s, 183° | - | - |
| 1777986318 | 15° C | 90% | 1008.1 hPa | 0 mm | 2.68 m/s, 221° | - | - |
| 1777985716 | 15° C | 91% | 1008.3 hPa | 0.25 mm | 1.79 m/s, 208° | - | - |
| 1777985414 | 15° C | 92% | 1008.3 hPa | 0.25 mm | 1.79 m/s, 184° | - | - |
| 1777984812 | 14.44° C | 93% | 1008.1 hPa | 0.25 mm | 2.24 m/s, 131° | - | - |
| 1777984512 | 14.44° C | 93% | 1008.3 hPa | 0.25 mm | 2.68 m/s, 155° | - | - |
* Rain latest hour (hover to see other rain measurements)
** Current wind speed in m/s (hover to see current wind gust speed)